Zurück zum Katalog

STARLINK-4566

AktivKommunikationSSO
NORAD 53693·PAYLOAD·🇺🇸 United States

Gestartet Aug 31, 2022 von Vandenberg Space Force Base

Loading…

Nächste Überflüge (nächste 24 Stunden)

TLE

AktuellSource: CelesTrak SupGP

Epoche: Sep 14, 2026, 21:51 UTC

1 53693C 22105AX  26257.91090278  .00002153  00000+0  66857-4 0  2577
2 53693  97.2842 134.7218 0001994  91.8981  49.6240 15.33429171    17

Verfolge STARLINK-4566 in Echtzeit mit AllMySat

Download on the App Store